Location: ??????
(55.2000°N, 38.3000°E)
Time: 01:36:15
(UTC+00:00)

SWARM C - Pass Details

Date: 15 November 2025
Orbit: 425 x 428 km, 87.3° (Epoch: 12 December)

Event Time Altitude Azimuth Distance (km) Brightness Sun altitude
Rises 02:55:19 0° 182° (S) 2,404 8.4 -17.4°
Reaches altitude 10° 02:57:20 10° 182° (S) 1,541 7.4 -17.1°
Maximum altitude 03:00:41 89° 278° (W) 442 4.4 -16.6°
Drops below altitude 10° 03:04:03 10° 3° (N) 1,552 7.3 -16.2°
Sets 03:06:06 0° 4° (N) 2,425 8.3 -15.9°
